Weather History for State College, PA

Change the Weather History Date:

Saturday, January 19, 2013

  Actual Average Record
Temperature  
Mean Temperature 36 °F -  
Max Temperature 50 °F 32 °F 61 °F (1973)
Min Temperature 23 °F 16 °F -5 °F (1940)
Degree Days  
Heating Degree Days 28    
Moisture  
Dew Point 11 °F    
Average Humidity 36    
Maximum Humidity 53    
Minimum Humidity 24    
Precipitation  
Precipitation 0.00 in - - ()
Sea Level Pressure  
Sea Level Pressure 30.05 in    
Wind  
Wind Speed 8 mph (WSW)    
Max Wind Speed 20 mph    
Max Gust Speed 30 mph    
Visibility 10 miles    
Events      
Averages and records for this station are not official NWS values.
T = Trace of Precipitation, MM = Missing Value Source: NWS Daily Summary

Daily Weather History Graph

Daily Weather History Graph

Search for Another Location

Airport:

Trip Planner

Search our weather history database for the weather conditions in past years. The results will help you decide how hot, cold, wet, or windy it might be!

Date:

Astronomy

Jan. 19, 2013 Rise Set
Actual Time 7:31 AM EST 5:13 PM EST
Civil Twilight 7:01 AM EST 5:43 PM EST
Nautical Twilight 6:28 AM EST 6:16 PM EST
Astronomical Twilight 5:55 AM EST 6:49 PM EST
Moon 11:38 AM EST (1/19) 1:03 AM EST (1/19)
Length of Visible Light 10h 41m
Length of Day
9h 41m
First Quarter, 57% of the Moon is Illuminated
Jan 19
First Quarter
Jan 26
Full
Feb 3
Last Quarter
Feb 10
New
Feb 17
First Quarter

Hourly Weather History & Observations

Time (EST) Temp. Windchill Dew Point Humidity Pressure Visibility Wind Dir Wind Speed Gust Speed Precip Events Conditions
12:15 AM 23.7 °F 16.6 °F 8.6 °F 53% 30.23 in 10.0 mi SW 5.8 mph - N/A   Scattered Clouds
12:35 AM 24.3 °F 16.3 °F 8.6 °F 51% 30.23 in 10.0 mi SW 6.9 mph - N/A   Scattered Clouds
12:55 AM 25.3 °F 17.6 °F 7.7 °F 47% 30.22 in 10.0 mi WSW 6.9 mph - N/A   Clear
1:15 AM 25.9 °F 18.2 °F 7.7 °F 46% 30.21 in 10.0 mi WSW 6.9 mph - N/A   Scattered Clouds
1:35 AM 25.3 °F 18.5 °F 8.4 °F 49% 30.20 in 10.0 mi West 5.8 mph - N/A   Mostly Cloudy
1:55 AM 25.2 °F 18.3 °F 8.1 °F 48% 30.20 in 10.0 mi West 5.8 mph - N/A   Mostly Cloudy
2:15 AM 25.5 °F 17.8 °F 7.9 °F 47% 30.20 in 10.0 mi West 6.9 mph - N/A   Mostly Cloudy
2:35 AM 25.9 °F 18.2 °F 8.6 °F 48% 30.20 in 10.0 mi West 6.9 mph - N/A   Overcast
2:55 AM 26.4 °F 18.9 °F 8.4 °F 47% 30.19 in 10.0 mi West 6.9 mph - N/A   Overcast
3:35 AM 26.4 °F 18.9 °F 7.5 °F 45% 30.17 in 10.0 mi West 6.9 mph - N/A   Mostly Cloudy
3:55 AM 25.0 °F 17.1 °F 8.2 °F 49% 30.16 in 10.0 mi West 6.9 mph - N/A   Mostly Cloudy
4:15 AM 26.6 °F 19.1 °F 6.8 °F 43% 30.15 in 10.0 mi West 6.9 mph - N/A   Overcast
4:35 AM 26.6 °F 19.1 °F 6.6 °F 43% 30.15 in 10.0 mi West 6.9 mph - N/A   Mostly Cloudy
4:55 AM 27.3 °F 19.9 °F 6.1 °F 41% 30.15 in 10.0 mi West 6.9 mph - N/A   Scattered Clouds
5:15 AM 26.6 °F 19.1 °F 6.6 °F 43% 30.14 in 10.0 mi WSW 6.9 mph - N/A   Clear
5:53 AM 26.6 °F 21.2 °F 6.8 °F 43% 30.13 in 10.0 mi NW 4.6 mph - N/A   Partly Cloudy
6:53 AM 30.2 °F 23.4 °F 5.0 °F 34% 30.12 in 10.0 mi SW 6.9 mph - N/A   Scattered Clouds
7:53 AM 32.0 °F 24.2 °F 8.6 °F 38% 30.12 in 10.0 mi SSW 9.2 mph - N/A   Partly Cloudy
8:53 AM 35.6 °F 28.6 °F 10.4 °F 35% 30.12 in 10.0 mi SSW 9.2 mph - N/A   Clear
9:53 AM 41.0 °F 35.2 °F 12.2 °F 31% 30.12 in 10.0 mi SSW 9.2 mph - N/A   Clear
10:53 AM 44.6 °F 36.6 °F 14.0 °F 29% 30.10 in 10.0 mi WSW 19.6 mph 28.8 mph N/A   Clear
11:53 AM 46.4 °F 41.1 °F 15.8 °F 29% 30.06 in 10.0 mi WSW 11.5 mph 28.8 mph N/A   Clear
12:53 PM 48.2 °F - 14.0 °F 25% 30.03 in 10.0 mi SW 11.5 mph 28.8 mph N/A   Clear
1:53 PM 50.0 °F - 17.6 °F 28% 30.00 in 10.0 mi WSW 11.5 mph 23.0 mph N/A   Clear
2:53 PM 50.0 °F - 14.0 °F 24% 29.98 in 10.0 mi SW 17.3 mph 29.9 mph N/A   Clear
3:53 PM 50.0 °F - 15.8 °F 26% 29.96 in 10.0 mi SW 11.5 mph 23.0 mph N/A   Clear
4:53 PM 48.2 °F - 15.8 °F 27% 29.95 in 10.0 mi SW 8.1 mph - N/A   Partly Cloudy
5:53 PM 46.4 °F 41.5 °F 15.8 °F 29% 29.93 in 10.0 mi SW 10.4 mph - N/A   Partly Cloudy
6:53 PM 46.4 °F 41.9 °F 15.8 °F 29% 29.91 in 10.0 mi SW 9.2 mph - N/A   Scattered Clouds
7:53 PM 46.4 °F 41.1 °F 15.8 °F 29% 29.89 in 10.0 mi SW 11.5 mph - N/A   Scattered Clouds
8:53 PM 46.4 °F 41.1 °F 14.0 °F 27% 29.87 in 10.0 mi SW 11.5 mph - N/A   Mostly Cloudy
9:55 PM 46.6 °F - 13.6 °F 27% 29.84 in 10.0 mi SSW 11.5 mph 18.4 mph N/A   Mostly Cloudy
10:15 PM 46.4 °F 40.7 °F 13.8 °F 27% 29.83 in 10.0 mi SSW 12.7 mph 16.1 mph N/A   Scattered Clouds
10:35 PM 46.0 °F 41.4 °F 14.7 °F 28% 29.83 in 10.0 mi SW 9.2 mph - N/A   Clear
10:55 PM 44.8 °F 41.0 °F 15.6 °F 31% 29.81 in 10.0 mi SSW 6.9 mph - N/A   Clear
11:15 PM 45.5 °F 41.8 °F 14.7 °F 29% 29.80 in 10.0 mi SSW 6.9 mph - N/A   Clear
11:35 PM 44.6 °F 39.2 °F 15.1 °F 30% 29.79 in 10.0 mi SSW 10.4 mph - N/A   Clear
11:55 PM 44.6 °F 39.7 °F 14.5 °F 30% 29.79 in 10.0 mi SSW 9.2 mph - N/A   Clear